When you browse on this site, cookies collect data to enhance your experience and personalize the content and advertising you see.
Visit our Privacy Policy to learn more. By continuing to use the site, you agree to this use of cookies and data.
  • In Portugal
  • List of Countries
  • For 7 days
  • Water Temperature
  • Weather Map
  • Weather Widgets
  • user-avatar
    Login

    Hourly Weather Wavre

    Today, 19 November, Tuesday

    Time Temperature Precipitation Wind Pressure Humidity
    00:00 +4°C° 0 mm 3 mps 754 mmHg 89%
    01:00 +3°C° 0.1 mm 3 mps 755 mmHg 89%
    02:00 +3°C° 0.1 mm 4 mps 755 mmHg 89%
    03:00 +3°C° 0.1 mm 4 mps 755 mmHg 88%
    04:00 +3°C° 0.2 mm 4 mps 755 mmHg 89%
    05:00 +3°C° 0.2 mm 4 mps 755 mmHg 90%
    06:00 +2°C° 0 mm 3 mps 756 mmHg 91%
    07:00 +3°C° 0 mm 3 mps 756 mmHg 89%
    08:00 +3°C° 0 mm 3 mps 756 mmHg 88%
    09:00 +3°C° 0 mm 3 mps 756 mmHg 86%
    10:00 +4°C° 0 mm 3 mps 757 mmHg 81%
    11:00 +5°C° 0 mm 3 mps 757 mmHg 76%
    12:00 +7°C° 0 mm 3 mps 757 mmHg 71%
    13:00 +5°C° 0 mm 3 mps 757 mmHg 72%
    14:00 +6°C° 0 mm 2 mps 757 mmHg 74%
    15:00 +6°C° 0 mm 2 mps 757 mmHg 75%
    16:00 +5°C° 0 mm 2 mps 757 mmHg 78%
    17:00 +4°C° 0 mm 2 mps 757 mmHg 81%
    18:00 +4°C° 0 mm 1 mps 758 mmHg 84%
    19:00 +2°C° 0 mm 2 mps 758 mmHg 85%
    20:00 +2°C° 0 mm 2 mps 758 mmHg 86%
    21:00 +2°C° 0 mm 2 mps 758 mmHg 87%
    22:00 +1°C° 0 mm 2 mps 758 mmHg 87%
    23:00 +1°C° 0 mm 2 mps 758 mmHg 87%

    Tomorrow, 20 November, Wednesday

    Time Temperature Precipitation Wind Pressure Humidity
    00:00 +1°C° 0 mm 2 mps 758 mmHg 87%
    01:00 +1°C° 0 mm 2 mps 758 mmHg 87%
    02:00 +1°C° 0 mm 2 mps 758 mmHg 87%
    03:00 +1°C° 0 mm 1 mps 757 mmHg 87%
    04:00 -1°C° 0 mm 2 mps 757 mmHg 87%
    05:00 -1°C° 0 mm 2 mps 757 mmHg 88%
    06:00 -1°C° 0 mm 2 mps 757 mmHg 88%
    07:00 +1°C° 0 mm 2 mps 757 mmHg 85%
    08:00 +2°C° 0 mm 2 mps 757 mmHg 82%
    09:00 +3°C° 0 mm 2 mps 757 mmHg 79%
    10:00 +4°C° 0 mm 2 mps 756 mmHg 75%
    11:00 +5°C° 0 mm 2 mps 756 mmHg 71%
    12:00 +6°C° 0 mm 2 mps 756 mmHg 67%
    13:00 +5°C° 0 mm 3 mps 755 mmHg 71%
    14:00 +4°C° 0 mm 3 mps 755 mmHg 75%
    15:00 +4°C° 0 mm 3 mps 754 mmHg 78%
    16:00 +3°C° 0 mm 3 mps 754 mmHg 82%
    17:00 +1°C° 0 mm 4 mps 754 mmHg 85%
    18:00 0°C° 0 mm 4 mps 754 mmHg 89%
    19:00 0°C° 0 mm 4 mps 754 mmHg 89%
    20:00 0°C° 0 mm 3 mps 753 mmHg 90%
    21:00 0°C° 0 mm 3 mps 753 mmHg 90%
    22:00 -1°C° 0 mm 3 mps 753 mmHg 90%
    23:00 -1°C° 0 mm 3 mps 753 mmHg 91%

    Day after tomorrow, 21 November, Thursday

    Time Temperature Precipitation Wind Pressure Humidity
    00:00 -1°C° 0 mm 3 mps 752 mmHg 91%
    01:00 -1°C° 0 mm 3 mps 752 mmHg 91%
    02:00 -1°C° 0 mm 3 mps 752 mmHg 91%
    03:00 -1°C° 0 mm 3 mps 751 mmHg 92%
    04:00 -1°C° 0 mm 3 mps 751 mmHg 92%
    05:00 -1°C° 0 mm 3 mps 751 mmHg 91%
    06:00 0°C° 0 mm 3 mps 751 mmHg 91%
    07:00 +1°C° 0 mm 3 mps 751 mmHg 88%
    08:00 +2°C° 0 mm 3 mps 751 mmHg 86%
    09:00 +3°C° 0 mm 3 mps 751 mmHg 83%
    10:00 +4°C° 0 mm 3 mps 750 mmHg 81%
    11:00 +7°C° 0 mm 3 mps 750 mmHg 78%
    12:00 +8°C° 0 mm 3 mps 750 mmHg 76%
    13:00 +7°C° 0 mm 3 mps 750 mmHg 77%
    14:00 +7°C° 0 mm 3 mps 749 mmHg 79%
    15:00 +7°C° 0 mm 3 mps 749 mmHg 80%
    16:00 +5°C° 0 mm 3 mps 749 mmHg 82%
    17:00 +4°C° 0 mm 3 mps 749 mmHg 85%
    18:00 +4°C° 0 mm 3 mps 749 mmHg 87%
    19:00 +4°C° 0 mm 4 mps 749 mmHg 87%
    20:00 +4°C° 0 mm 4 mps 749 mmHg 87%
    21:00 +5°C° 0 mm 5 mps 749 mmHg 87%
    22:00 +5°C° 0.1 mm 4 mps 749 mmHg 88%
    23:00 +5°C° 0.1 mm 4 mps 749 mmHg 88%

    22 November, Friday

    Time Temperature Precipitation Wind Pressure Humidity
    00:00 +5°C° 0.1 mm 4 mps 749 mmHg 89%
    01:00 +5°C° 0 mm 4 mps 749 mmHg 90%
    02:00 +5°C° 0 mm 4 mps 749 mmHg 90%
    03:00 +5°C° 0 mm 4 mps 749 mmHg 91%
    04:00 +5°C° 0 mm 4 mps 749 mmHg 91%
    05:00 +4°C° 0 mm 4 mps 749 mmHg 91%
    06:00 +4°C° 0 mm 4 mps 749 mmHg 92%
    07:00 +3°C° 0 mm 5 mps 749 mmHg 90%
    08:00 +5°C° 0 mm 5 mps 749 mmHg 87%
    09:00 +5°C° 0 mm 5 mps 749 mmHg 85%
    10:00 +6°C° 0 mm 5 mps 749 mmHg 82%
    11:00 +7°C° 0 mm 5 mps 748 mmHg 79%
    12:00 +8°C° 0 mm 5 mps 748 mmHg 76%
    13:00 +8°C° 0 mm 5 mps 747 mmHg 77%
    14:00 +8°C° 0 mm 4 mps 747 mmHg 77%
    15:00 +8°C° 0 mm 4 mps 747 mmHg 78%
    16:00 +7°C° 0 mm 4 mps 746 mmHg 80%
    17:00 +6°C° 0 mm 4 mps 746 mmHg 82%
    18:00 +5°C° 0 mm 5 mps 746 mmHg 83%
    19:00 +6°C° 0 mm 5 mps 746 mmHg 79%
    20:00 +6°C° 0 mm 5 mps 746 mmHg 74%
    21:00 +6°C° 0 mm 5 mps 745 mmHg 69%
    22:00 +6°C° 0 mm 5 mps 745 mmHg 68%
    23:00 +7°C° 0 mm 5 mps 745 mmHg 66%

    23 November, Saturday

    Time Temperature Precipitation Wind Pressure Humidity
    00:00 +7°C° 0 mm 4 mps 745 mmHg 65%
    01:00 +7°C° 0.1 mm 5 mps 744 mmHg 66%
    02:00 +7°C° 0.1 mm 5 mps 744 mmHg 68%
    03:00 +7°C° 0.1 mm 5 mps 744 mmHg 69%
    04:00 +7°C° 0 mm 5 mps 744 mmHg 69%
    05:00 +7°C° 0 mm 5 mps 744 mmHg 69%
    06:00 +7°C° 0 mm 5 mps 743 mmHg 69%
    07:00 +8°C° 0 mm 5 mps 743 mmHg 68%
    08:00 +8°C° 0 mm 5 mps 743 mmHg 67%
    09:00 +8°C° 0 mm 5 mps 743 mmHg 66%
    10:00 +10°C° 0 mm 4 mps 743 mmHg 64%
    11:00 +11°C° 0 mm 4 mps 743 mmHg 63%
    12:00 +12°C° 0 mm 3 mps 744 mmHg 61%
    13:00 +11°C° 0 mm 3 mps 744 mmHg 64%
    14:00 +10°C° 0 mm 2 mps 744 mmHg 67%
    15:00 +11°C° 0 mm 1 mps 744 mmHg 70%
    16:00 +9°C° 0 mm 2 mps 745 mmHg 72%
    17:00 +8°C° 0 mm 2 mps 745 mmHg 73%
    18:00 +7°C° 0 mm 2 mps 746 mmHg 75%
    19:00 +7°C° 0 mm 2 mps 746 mmHg 75%
    20:00 +7°C° 0 mm 2 mps 746 mmHg 75%
    21:00 +7°C° 0 mm 2 mps 747 mmHg 75%
    22:00 +7°C° 0 mm 2 mps 747 mmHg 77%
    23:00 +7°C° 0 mm 2 mps 748 mmHg 79%

    24 November, Sunday

    Time Temperature Precipitation Wind Pressure Humidity
    00:00 +7°C° 0 mm 2 mps 748 mmHg 81%
    01:00 +7°C° 0 mm 1 mps 748 mmHg 83%
    02:00 +7°C° 0 mm 1 mps 748 mmHg 85%
    03:00 +7°C° 0 mm 1 mps 748 mmHg 86%
    04:00 +7°C° 0 mm 1 mps 749 mmHg 87%
    05:00 +6°C° 0 mm 1 mps 749 mmHg 88%
    06:00 +6°C° 0 mm 1 mps 750 mmHg 88%
    07:00 +7°C° 0 mm 1 mps 750 mmHg 87%
    08:00 +7°C° 0 mm 1 mps 750 mmHg 85%
    09:00 +8°C° 0 mm 1 mps 751 mmHg 84%
    10:00 +9°C° 0 mm 1 mps 751 mmHg 80%
    11:00 +10°C° 0 mm 1 mps 751 mmHg 77%
    12:00 +11°C° 0 mm 1 mps 751 mmHg 73%
    13:00 +11°C° 0 mm 1 mps 751 mmHg 77%
    14:00 +11°C° 0 mm 1 mps 751 mmHg 80%
    15:00 +10°C° 0 mm 1 mps 751 mmHg 83%
    16:00 +9°C° 0 mm 2 mps 751 mmHg 85%
    17:00 +8°C° 0 mm 2 mps 751 mmHg 88%
    18:00 +7°C° 0 mm 2 mps 751 mmHg 91%
    19:00 +7°C° 0 mm 3 mps 752 mmHg 91%
    20:00 +7°C° 0 mm 3 mps 752 mmHg 92%
    21:00 +5°C° 0 mm 3 mps 752 mmHg 92%
    22:00 +5°C° 0 mm 3 mps 752 mmHg 93%
    23:00 +5°C° 0 mm 3 mps 751 mmHg 93%
    Show more